Terminal Aerodrome Forecast
Issued by NWS New Orleans/Baton Rouge, LA

Home | Current Version | Previous Version | Text Only | Print | Product List | Glossary On
Versions: 1 2 3 4 5 6 7 8 9 10 11 12 13 14 15 16 17 18 19 20 21 22 23 24 25 26 27 28 29 30 31 32 33 34 35 36 37 38 39 40 41 42 43 44 45 46 47 48 49 50
000
FTUS44 KLIX 222021 AAA
TAFNEW
TAF AMD
KNEW 222021Z 2220/2318 27023G35KT P6SM BKN080
     FM230800 31024G38KT P6SM BKN025
     FM231000 31023G35KT P6SM BKN040
     FM231400 31018G28KT P6SM SCT060=

USA.gov is the U.S. government's official web portal to all federal, state and local government web resources and services.